THORAD DELTA 1 DEB, 8162

Orbit data source: Space-Track

THORAD DELTA 1 DEB, 8162 is space debris in SSO originally from a launch on Fri, 15 Nov 1974 UTC launched from the Air Force Western Test Range (AFWTR). Debris objects in space refer to the collection of defunct objects orbiting the Earth. Examples of debris include non-operational satellites, rocket bodies, and fragments generated from explosions, collisions, or faulty payload assembly.

Loading next visibility...
Identifier
8162, 1974-089AC
Orbit
SSO
Country
Flag of USUS
Related business
Manufacturer
Unknown
Mission
Spacecraft
Bus & Motor
Unknown
Mass
Unknown
Launch date (UTC)
1974-11-15 (51 years ago)
Launch vehicle
Unknown
Launch site
Air Force Western Test Range (AFWTR)
Object type
Payload
Rocket body
Debris
Shape & HBR
Unknown shape, 0.1 m
Radar Cross Section
Small (<0.1 m²)

Expand to show TLE details & history
Last TLE update: 1 day ago

TLE from 1 day ago
0 THORAD DELTA 1 DEB
1 08162U 74089AC  26034.58605457  .00001714  00000-0  11067-1 0  9999
2 08162 100.8293 274.9400 0138412 101.8953 289.8337 12.50399226303133
Epoch: 2026-02-03T14:03Z
TLE epoch observation values (Epoch: 2026-02-03T14:03:55.114Z)
Latitude
29.68328°
Longitude
-76.03325°
Altitude
1,430.789 km
Speed
7.165 km/s
True Right ascension
17h 54m 50s
True Declination
29° 32' 54"
Sunlit
Object was in daylight at epoch
Visualization orbit readout
Latitude
Unknown
Longitude
Unknown
Altitude
Unknown
Speed
Unknown
Apparent Right ascension
Unknown
Apparent Declination
Unknown
Sunlit
N/A
Visualization observer readout
Local Sidereal Time
18:05:40
Azimuth
Unknown
Elevation
Unknown
Doppler factor
Unknown
Orbital elements
Apogee altitude
1,568.813 km
Perigee altitude
1,351.826 km
Semi-major axis
7,838.456 km
Eccentricity
0.01384
Inclination
100.8293°
RAAN
274.94°
Arg. of periapsis
101.8953°
True anomaly
288.33306°
Mean anomaly
289.8337°
Eccentric anomaly
289.08424°
Mean motion
3.1275 °/min
Orbital period
115.11 mins
BSTAR
0.011067
Loading maneuver chart data...
Computing Atmospheric mass density...

Documentation

Showing up to 5 results
|